Time,TemperatureF,DewpointF,PressureIn,WindDirection,WindDirectionDegrees,WindSpeedMPH,WindSpeedGustMPH,Humidity,HourlyPrecipIn,Conditions,Clouds,dailyrainin,SolarRadiationWatts/m^2,SoftwareType,DateUTC
2013-09-26 00:03:00,49.4,46.9,29.97,ENE,68,0.0,3.0,91,0.00,,OVC044,0.00,0.00,VWS V14.01,2013-09-26 04:03:00,
2013-09-26 00:13:00,50.1,47.3,29.97,ENE,68,0.0,4.0,90,0.00,,OVC044,0.00,0.00,VWS V14.01,2013-09-26 04:13:00,
2013-09-26 00:23:00,49.4,46.3,29.97,ENE,68,0.0,3.0,89,0.00,,OVC044,0.00,0.00,VWS V14.01,2013-09-26 04:23:00,
2013-09-26 00:33:00,49.4,46.9,29.97,ENE,68,0.0,0.0,91,0.00,,OVC044,0.00,0.00,VWS V14.01,2013-09-26 04:33:00,
2013-09-26 00:43:00,49.5,46.7,29.97,ENE,68,1.0,2.0,90,0.00,,OVC044,0.00,0.00,VWS V14.01,2013-09-26 04:43:00,
2013-09-26 00:53:00,49.4,46.3,29.97,ENE,68,1.0,3.0,89,0.00,,OVC044,0.00,0.00,VWS V14.01,2013-09-26 04:53:00,
2013-09-26 01:03:00,49.5,46.4,29.97,ENE,68,0.0,3.0,89,0.00,,OVC044,0.00,0.00,VWS V14.01,2013-09-26 05:03:00,
2013-09-26 01:13:00,48.5,46.0,29.97,NW,321,1.0,5.0,91,0.00,,OVC044,0.00,0.00,VWS V14.01,2013-09-26 05:13:00,
2013-09-26 01:23:00,48.5,45.4,29.97,WSW,248,0.0,4.0,89,0.00,,OVC044,0.00,0.00,VWS V14.01,2013-09-26 05:23:00,
2013-09-26 01:33:00,47.4,45.2,29.98,WSW,248,2.0,3.0,92,0.00,,OVC044,0.00,0.00,VWS V14.01,2013-09-26 05:33:00,
2013-09-26 01:43:00,47.1,45.2,29.98,West,270,2.0,3.0,93,0.00,,OVC044,0.00,0.00,VWS V14.01,2013-09-26 05:43:00,
2013-09-26 01:53:00,48.0,44.9,29.98,West,270,3.0,3.0,89,0.00,,OVC044,0.00,0.00,VWS V14.01,2013-09-26 05:53:00,
2013-09-26 02:03:00,47.7,44.9,29.98,West,270,2.0,4.0,90,0.00,,BKN042,0.00,0.00,VWS V14.01,2013-09-26 06:03:00,
2013-09-26 02:13:00,47.1,44.6,29.98,West,259,2.0,4.0,91,0.00,,BKN042,0.00,0.00,VWS V14.01,2013-09-26 06:13:00,
2013-09-26 02:23:00,46.4,44.8,29.98,WNW,285,2.0,5.0,94,0.00,,BKN042,0.00,0.00,VWS V14.01,2013-09-26 06:23:00,
2013-09-26 02:33:00,46.2,44.6,29.98,WNW,285,4.0,5.0,94,0.00,,BKN042,0.00,0.00,VWS V14.01,2013-09-26 06:33:00,
2013-09-26 02:43:00,46.1,44.2,29.98,WNW,285,3.0,5.0,93,0.00,,BKN042,0.00,0.00,VWS V14.01,2013-09-26 06:43:00,
2013-09-26 02:53:00,46.1,44.2,29.98,WNW,284,3.0,5.0,93,0.00,,BKN042,0.00,0.00,VWS V14.01,2013-09-26 06:53:00,
2013-09-26 03:03:00,45.7,43.5,29.98,WNW,284,0.0,5.0,92,0.00,,FEW042,0.00,0.00,VWS V14.01,2013-09-26 07:03:00,
2013-09-26 03:13:00,45.7,43.2,29.98,WNW,284,0.0,0.0,91,0.00,,FEW042,0.00,0.00,VWS V14.01,2013-09-26 07:13:00,
2013-09-26 03:23:00,45.1,43.2,29.98,WNW,284,3.0,4.0,93,0.00,,FEW042,0.00,0.00,VWS V14.01,2013-09-26 07:23:00,
2013-09-26 03:33:00,45.1,43.2,29.99,WNW,284,3.0,5.0,93,0.00,,FEW042,0.00,0.00,VWS V14.01,2013-09-26 07:33:00,
2013-09-26 03:43:00,45.4,43.2,29.99,WNW,284,4.0,6.0,92,0.00,,FEW042,0.00,0.00,VWS V14.01,2013-09-26 07:43:00,
2013-09-26 03:53:00,45.1,43.2,29.99,WNW,284,2.0,4.0,93,0.00,,FEW042,0.00,0.00,VWS V14.01,2013-09-26 07:53:00,
2013-09-26 04:03:00,45.2,43.0,29.99,WNW,284,0.0,5.0,92,0.00,,CLR,0.00,0.00,VWS V14.01,2013-09-26 08:03:00,
2013-09-26 04:13:00,44.5,42.9,29.99,WNW,284,3.0,4.0,94,0.00,,CLR,0.00,0.00,VWS V14.01,2013-09-26 08:13:00,
2013-09-26 04:23:00,44.5,43.4,30.00,WNW,284,2.0,3.0,96,0.00,,CLR,0.00,0.00,VWS V14.01,2013-09-26 08:23:00,
2013-09-26 04:33:00,44.1,43.0,30.00,WNW,284,3.0,3.0,96,0.00,,CLR,0.00,0.00,VWS V14.01,2013-09-26 08:33:00,
2013-09-26 04:43:00,43.5,42.7,30.00,WNW,285,4.0,5.0,97,0.00,,CLR,0.00,0.00,VWS V14.01,2013-09-26 08:43:00,
2013-09-26 04:53:00,43.2,42.7,30.00,WNW,285,2.0,4.0,98,0.00,,CLR,0.00,0.00,VWS V14.01,2013-09-26 08:53:00,
2013-09-26 05:03:00,42.9,42.4,30.00,WNW,285,3.0,3.0,98,0.00,,CLR,0.00,0.00,VWS V14.01,2013-09-26 09:03:00,
2013-09-26 05:13:00,43.2,42.7,30.00,WNW,285,2.0,4.0,98,0.00,,CLR,0.00,0.00,VWS V14.01,2013-09-26 09:13:00,
2013-09-26 05:23:00,43.1,42.6,30.00,WNW,285,0.0,3.0,98,0.00,,CLR,0.00,0.00,VWS V14.01,2013-09-26 09:23:00,
2013-09-26 05:33:00,42.6,42.1,30.00,WNW,285,2.0,4.0,98,0.00,,CLR,0.00,0.00,VWS V14.01,2013-09-26 09:33:00,
2013-09-26 05:43:00,43.3,42.5,30.00,WNW,285,3.0,4.0,97,0.00,,CLR,0.00,0.00,VWS V14.01,2013-09-26 09:43:00,
2013-09-26 05:53:00,42.5,41.7,30.00,WNW,285,0.0,3.0,97,0.00,,CLR,0.00,0.00,VWS V14.01,2013-09-26 09:53:00,
2013-09-26 06:03:00,42.1,41.6,30.00,WNW,285,0.0,0.0,98,0.00,,CLR,0.00,0.00,VWS V14.01,2013-09-26 10:03:00,
2013-09-26 06:13:00,41.9,41.4,30.00,WNW,285,0.0,0.0,98,0.00,,CLR,0.00,0.00,VWS V14.01,2013-09-26 10:13:00,
2013-09-26 06:23:00,42.2,41.9,30.00,WNW,285,2.0,3.0,99,0.00,,CLR,0.00,0.00,VWS V14.01,2013-09-26 10:23:00,
2013-09-26 06:33:00,42.3,42.0,30.01,WNW,285,0.0,3.0,99,0.00,,CLR,0.00,0.00,VWS V14.01,2013-09-26 10:33:00,
2013-09-26 06:43:00,41.9,41.4,30.01,WNW,285,3.0,3.0,98,0.00,,CLR,0.00,0.00,VWS V14.01,2013-09-26 10:43:00,
2013-09-26 06:53:00,41.9,41.6,30.01,South,176,0.0,4.0,99,0.00,,CLR,0.00,5.00,VWS V14.01,2013-09-26 10:53:00,
2013-09-26 07:03:00,42.1,41.8,30.01,South,176,0.0,0.0,99,0.00,,CLR,0.00,7.00,VWS V14.01,2013-09-26 11:03:00,
2013-09-26 07:13:00,42.2,41.9,30.01,WSW,255,1.0,2.0,99,0.00,,CLR,0.00,9.00,VWS V14.01,2013-09-26 11:13:00,
2013-09-26 07:23:00,42.3,42.0,30.02,WSW,255,0.0,2.0,99,0.00,,CLR,0.00,11.00,VWS V14.01,2013-09-26 11:23:00,
2013-09-26 07:33:00,42.3,42.0,30.02,WSW,255,0.0,0.0,99,0.00,,CLR,0.00,14.00,VWS V14.01,2013-09-26 11:33:00,
2013-09-26 07:43:00,42.5,42.2,30.02,WSW,255,0.0,0.0,99,0.00,,CLR,0.00,16.00,VWS V14.01,2013-09-26 11:43:00,
2013-09-26 07:53:00,42.9,42.6,30.02,WSW,255,0.0,0.0,99,0.00,,CLR,0.00,19.00,VWS V14.01,2013-09-26 11:53:00,
2013-09-26 08:03:00,43.8,43.5,30.02,WSW,255,0.0,0.0,99,0.00,,CLR,0.00,19.00,VWS V14.01,2013-09-26 12:03:00,
2013-09-26 08:13:00,44.8,44.0,30.02,WSW,255,0.0,0.0,97,0.00,,CLR,0.00,39.00,VWS V14.01,2013-09-26 12:13:00,
2013-09-26 08:23:00,45.1,44.3,30.02,WSW,255,0.0,0.0,97,0.00,,CLR,0.00,23.00,VWS V14.01,2013-09-26 12:23:00,
2013-09-26 08:33:00,46.4,43.0,30.03,WSW,255,0.0,0.0,88,0.00,,CLR,0.00,23.00,VWS V14.01,2013-09-26 12:33:00,
2013-09-26 08:43:00,47.3,43.0,30.03,WSW,255,2.0,3.0,85,0.00,,CLR,0.00,23.00,VWS V14.01,2013-09-26 12:43:00,
2013-09-26 08:53:00,48.5,43.3,30.03,WNW,295,2.0,4.0,82,0.00,,CLR,0.00,23.00,VWS V14.01,2013-09-26 12:53:00,
2013-09-26 09:03:00,49.1,43.8,30.02,WSW,250,0.0,5.0,82,0.00,,CLR,0.00,39.00,VWS V14.01,2013-09-26 13:03:00,
2013-09-26 09:13:00,49.6,44.3,30.02,SW,233,1.0,4.0,82,0.00,,CLR,0.00,25.00,VWS V14.01,2013-09-26 13:13:00,
2013-09-26 09:23:00,50.5,43.9,30.03,SW,233,2.0,3.0,78,0.00,,CLR,0.00,25.00,VWS V14.01,2013-09-26 13:23:00,
2013-09-26 09:33:00,51.1,44.8,30.03,SW,233,1.0,3.0,79,0.00,,CLR,0.00,26.00,VWS V14.01,2013-09-26 13:33:00,
2013-09-26 09:43:00,51.6,44.3,30.03,West,260,0.0,4.0,76,0.00,,CLR,0.00,26.00,VWS V14.01,2013-09-26 13:43:00,
2013-09-26 09:53:00,52.5,44.5,30.03,West,259,1.0,3.0,74,0.00,,CLR,0.00,28.00,VWS V14.01,2013-09-26 13:53:00,
2013-09-26 10:03:00,52.8,44.8,30.03,West,260,0.0,4.0,74,0.00,,CLR,0.00,28.00,VWS V14.01,2013-09-26 14:03:00,
2013-09-26 10:13:00,53.8,45.4,30.03,West,260,2.0,3.0,73,0.00,,CLR,0.00,30.00,VWS V14.01,2013-09-26 14:13:00,
2013-09-26 10:23:00,54.2,44.3,30.03,West,260,4.0,4.0,69,0.00,,CLR,0.00,32.00,VWS V14.01,2013-09-26 14:23:00,
2013-09-26 10:33:00,55.1,44.7,30.03,West,260,0.0,5.0,68,0.00,,CLR,0.00,32.00,VWS V14.01,2013-09-26 14:33:00,
2013-09-26 10:43:00,55.7,44.5,30.03,West,260,2.0,4.0,66,0.00,,CLR,0.00,32.00,VWS V14.01,2013-09-26 14:43:00,
2013-09-26 10:53:00,56.2,45.4,30.03,West,260,3.0,4.0,67,0.00,,CLR,0.00,343.00,VWS V14.01,2013-09-26 14:53:00,
2013-09-26 11:03:00,57.0,43.7,30.03,West,259,2.0,5.0,61,0.00,,CLR,0.00,374.00,VWS V14.01,2013-09-26 15:03:00,
2013-09-26 11:13:00,58.0,45.1,30.03,West,262,2.0,6.0,62,0.00,,CLR,0.00,698.00,VWS V14.01,2013-09-26 15:13:00,
2013-09-26 11:23:00,58.6,46.1,30.02,West,262,3.0,5.0,63,0.00,,CLR,0.00,714.00,VWS V14.01,2013-09-26 15:23:00,
2013-09-26 11:33:00,59.0,45.2,30.02,West,262,0.0,4.0,60,0.00,,CLR,0.00,722.00,VWS V14.01,2013-09-26 15:33:00,
2013-09-26 11:43:00,58.9,47.2,30.02,West,262,0.0,2.0,65,0.00,,CLR,0.00,735.00,VWS V14.01,2013-09-26 15:43:00,
2013-09-26 11:53:00,59.6,45.7,30.02,West,262,0.0,0.0,60,0.00,,CLR,0.00,745.00,VWS V14.01,2013-09-26 15:53:00,
2013-09-26 12:03:00,59.8,45.5,30.02,West,262,0.0,2.0,59,0.00,,CLR,0.00,751.00,VWS V14.01,2013-09-26 16:03:00,
2013-09-26 12:13:00,60.9,46.5,30.02,West,262,0.0,0.0,59,0.00,,CLR,0.00,756.00,VWS V14.01,2013-09-26 16:13:00,
2013-09-26 12:23:00,61.2,45.4,30.02,ENE,60,4.0,5.0,56,0.00,,CLR,0.00,759.00,VWS V14.01,2013-09-26 16:23:00,
2013-09-26 12:33:00,61.2,46.8,30.02,ENE,60,2.0,5.0,59,0.00,,CLR,0.00,761.00,VWS V14.01,2013-09-26 16:33:00,
2013-09-26 12:43:00,61.8,44.0,30.02,NE,51,3.0,4.0,52,0.00,,CLR,0.00,759.00,VWS V14.01,2013-09-26 16:43:00,
2013-09-26 12:53:00,60.9,44.6,30.01,East,84,3.0,4.0,55,0.00,,CLR,0.00,756.00,VWS V14.01,2013-09-26 16:53:00,
2013-09-26 13:03:00,60.5,44.7,30.01,East,81,1.0,3.0,56,0.00,,CLR,0.00,754.00,VWS V14.01,2013-09-26 17:03:00,
2013-09-26 13:13:00,62.6,47.2,30.01,East,81,0.0,3.0,57,0.00,,CLR,0.00,752.00,VWS V14.01,2013-09-26 17:13:00,
2013-09-26 13:23:00,63.1,45.7,30.01,ENE,61,0.0,3.0,53,0.00,,CLR,0.00,742.00,VWS V14.01,2013-09-26 17:23:00,
2013-09-26 13:33:00,63.4,46.0,30.00,North,0,0.0,5.0,53,0.00,,CLR,0.00,735.00,VWS V14.01,2013-09-26 17:33:00,
2013-09-26 13:43:00,63.4,46.0,30.00,West,278,3.0,5.0,53,0.00,,CLR,0.00,722.00,VWS V14.01,2013-09-26 17:43:00,
2013-09-26 13:53:00,62.9,44.5,30.00,North,0,0.0,3.0,51,0.00,,CLR,0.00,710.00,VWS V14.01,2013-09-26 17:53:00,
2013-09-26 14:03:00,64.2,45.7,30.00,ENE,68,5.0,5.0,51,0.00,,CLR,0.00,696.00,VWS V14.01,2013-09-26 18:03:00,
2013-09-26 14:13:00,64.3,47.3,30.00,NE,44,0.0,6.0,54,0.00,,CLR,0.00,679.00,VWS V14.01,2013-09-26 18:13:00,
2013-09-26 14:23:00,64.3,45.8,30.00,West,264,5.0,5.0,51,0.00,,CLR,0.00,661.00,VWS V14.01,2013-09-26 18:23:00,
2013-09-26 14:33:00,64.7,47.7,30.00,West,262,5.0,6.0,54,0.00,,CLR,0.00,643.00,VWS V14.01,2013-09-26 18:33:00,
2013-09-26 14:43:00,65.0,46.5,30.00,West,262,0.0,6.0,51,0.00,,CLR,0.00,578.00,VWS V14.01,2013-09-26 18:43:00,
2013-09-26 14:53:00,64.8,48.3,29.99,West,259,0.0,5.0,55,0.00,,CLR,0.00,480.00,VWS V14.01,2013-09-26 18:53:00,
2013-09-26 15:03:00,64.3,49.2,29.99,West,259,0.0,3.0,58,0.00,,CLR,0.00,480.00,VWS V14.01,2013-09-26 19:03:00,
2013-09-26 15:13:00,65.3,48.2,29.99,WNW,292,3.0,5.0,54,0.00,,CLR,0.00,438.00,VWS V14.01,2013-09-26 19:13:00,
2013-09-26 15:23:00,64.5,47.0,29.99,West,269,0.0,5.0,53,0.00,,CLR,0.00,476.00,VWS V14.01,2013-09-26 19:23:00,
2013-09-26 15:33:00,62.9,51.0,29.99,West,269,0.0,1.0,65,0.00,,CLR,0.00,504.00,VWS V14.01,2013-09-26 19:33:00,
2013-09-26 15:43:00,64.5,50.3,29.99,West,271,2.0,4.0,60,0.00,,CLR,0.00,459.00,VWS V14.01,2013-09-26 19:43:00,
2013-09-26 15:53:00,65.2,47.7,29.99,WSW,253,0.0,6.0,53,0.00,,CLR,0.00,383.00,VWS V14.01,2013-09-26 19:53:00,
2013-09-26 16:03:00,65.6,47.5,29.99,WSW,253,0.0,0.0,52,0.00,,CLR,0.00,332.00,VWS V14.01,2013-09-26 20:03:00,
2013-09-26 16:13:00,63.7,50.5,29.99,WSW,253,0.0,0.0,62,0.00,,CLR,0.00,325.00,VWS V14.01,2013-09-26 20:13:00,
2013-09-26 16:23:00,62.9,49.3,29.99,NNE,33,0.0,5.0,61,0.00,,CLR,0.00,343.00,VWS V14.01,2013-09-26 20:23:00,
2013-09-26 16:33:00,63.9,51.9,29.99,NNE,33,0.0,0.0,65,0.00,,CLR,0.00,332.00,VWS V14.01,2013-09-26 20:33:00,
2013-09-26 16:43:00,62.6,51.1,29.99,ENE,59,0.0,4.0,66,0.00,,CLR,0.00,267.00,VWS V14.01,2013-09-26 20:43:00,
2013-09-26 16:53:00,62.1,51.4,30.00,ENE,65,2.0,6.0,68,0.00,,CLR,0.00,70.00,VWS V14.01,2013-09-26 20:53:00,
2013-09-26 17:03:00,63.9,50.2,30.00,ESE,111,3.0,6.0,61,0.00,,CLR,0.00,70.00,VWS V14.01,2013-09-26 21:03:00,
2013-09-26 17:13:00,63.1,52.0,30.00,East,82,0.0,4.0,67,0.00,,CLR,0.00,81.00,VWS V14.01,2013-09-26 21:13:00,
2013-09-26 17:23:00,62.3,50.8,30.01,ESE,105,3.0,5.0,66,0.00,,CLR,0.00,81.00,VWS V14.01,2013-09-26 21:23:00,
2013-09-26 17:33:00,61.8,52.7,30.01,ESE,102,1.0,5.0,72,0.00,,CLR,0.00,51.00,VWS V14.01,2013-09-26 21:33:00,
2013-09-26 17:43:00,61.6,49.3,30.01,East,95,2.0,4.0,64,0.00,,CLR,0.00,30.00,VWS V14.01,2013-09-26 21:43:00,
2013-09-26 17:53:00,61.0,50.4,30.01,ENE,75,0.0,3.0,68,0.00,,CLR,0.00,21.00,VWS V14.01,2013-09-26 21:53:00,
2013-09-26 18:03:00,59.8,53.6,30.02,ENE,75,0.0,0.0,80,0.00,,OVC050,0.00,14.00,VWS V14.01,2013-09-26 22:03:00,
2013-09-26 18:13:00,58.9,54.1,30.02,ENE,75,0.0,0.0,84,0.00,,OVC050,0.00,21.00,VWS V14.01,2013-09-26 22:13:00,
2013-09-26 18:23:00,58.9,53.1,30.03,ENE,75,0.0,0.0,81,0.00,,OVC050,0.00,7.00,VWS V14.01,2013-09-26 22:23:00,
2013-09-26 18:33:00,58.6,53.1,30.03,ENE,75,0.0,0.0,82,0.00,,OVC050,0.00,0.00,VWS V14.01,2013-09-26 22:33:00,
2013-09-26 18:43:00,58.7,52.9,30.03,ENE,75,0.0,0.0,81,0.00,,OVC050,0.00,0.00,VWS V14.01,2013-09-26 22:43:00,
2013-09-26 18:53:00,57.6,51.8,30.04,ENE,75,0.0,1.0,81,0.00,,OVC050,0.00,0.00,VWS V14.01,2013-09-26 22:53:00,
2013-09-26 19:03:00,57.3,51.2,30.05,ENE,75,0.0,0.0,80,0.00,,OVC050,0.00,0.00,VWS V14.01,2013-09-26 23:03:00,
2013-09-26 19:13:00,56.9,51.8,30.05,ENE,75,0.0,0.0,83,0.00,,OVC050,0.00,0.00,VWS V14.01,2013-09-26 23:13:00,
2013-09-26 19:23:00,56.3,51.5,30.05,ENE,75,0.0,0.0,84,0.00,,OVC050,0.00,0.00,VWS V14.01,2013-09-26 23:23:00,
2013-09-26 19:33:00,56.0,51.6,30.06,ENE,75,0.0,0.0,85,0.00,,OVC050,0.00,0.00,VWS V14.01,2013-09-26 23:33:00,
2013-09-26 19:43:00,55.7,51.6,30.06,ENE,75,0.0,0.0,86,0.00,,OVC050,0.00,0.00,VWS V14.01,2013-09-26 23:43:00,
2013-09-26 19:53:00,55.4,51.6,30.06,ENE,75,0.0,0.0,87,0.00,,OVC050,0.00,0.00,VWS V14.01,2013-09-26 23:53:00,
2013-09-26 20:03:00,54.8,51.6,30.07,ENE,75,0.0,2.0,89,0.00,,CLR,0.00,0.00,VWS V14.01,2013-09-27 00:03:00,
2013-09-26 20:13:00,55.4,51.3,30.07,ENE,75,0.0,1.0,86,0.00,,CLR,0.00,0.00,VWS V14.01,2013-09-27 00:13:00,
2013-09-26 20:23:00,55.1,51.6,30.07,ENE,75,0.0,0.0,88,0.00,,CLR,0.00,0.00,VWS V14.01,2013-09-27 00:23:00,
2013-09-26 20:33:00,55.4,52.2,30.08,ENE,75,0.0,0.0,89,0.00,,CLR,0.00,0.00,VWS V14.01,2013-09-27 00:33:00,
2013-09-26 20:43:00,56.2,51.8,30.08,ENE,75,0.0,2.0,85,0.00,,CLR,0.00,0.00,VWS V14.01,2013-09-27 00:43:00,
2013-09-26 20:53:00,56.3,51.9,30.08,ENE,75,0.0,1.0,85,0.00,,CLR,0.00,0.00,VWS V14.01,2013-09-27 00:53:00,
2013-09-26 21:03:00,56.7,51.6,30.08,ENE,75,0.0,1.0,83,0.00,,SCT042,0.00,0.00,VWS V14.01,2013-09-27 01:03:00,
2013-09-26 21:13:00,56.9,51.1,30.08,WSW,241,2.0,4.0,81,0.00,,SCT042,0.00,0.00,VWS V14.01,2013-09-27 01:13:00,
2013-09-26 21:23:00,56.7,51.9,30.08,West,274,0.0,4.0,84,0.00,,SCT042,0.00,0.00,VWS V14.01,2013-09-27 01:23:00,
2013-09-26 21:33:00,56.7,51.3,30.09,West,274,2.0,3.0,82,0.00,,SCT042,0.00,0.00,VWS V14.01,2013-09-27 01:33:00,
2013-09-26 21:43:00,55.9,52.1,30.09,WSW,250,1.0,4.0,87,0.00,,SCT042,0.00,0.00,VWS V14.01,2013-09-27 01:43:00,
2013-09-26 21:53:00,56.0,50.6,30.09,WSW,250,0.0,3.0,82,0.00,,SCT042,0.00,0.00,VWS V14.01,2013-09-27 01:53:00,
2013-09-26 22:03:00,55.6,51.2,30.10,WSW,250,2.0,4.0,85,0.00,,OVC042,0.00,0.00,VWS V14.01,2013-09-27 02:03:00,
2013-09-26 22:13:00,55.3,51.2,30.10,WNW,286,0.0,4.0,86,0.00,,OVC042,0.00,0.00,VWS V14.01,2013-09-27 02:13:00,
2013-09-26 22:23:00,55.1,50.4,30.10,WNW,287,0.0,4.0,84,0.00,,OVC042,0.00,0.00,VWS V14.01,2013-09-27 02:23:00,
2013-09-26 22:33:00,55.6,50.5,30.10,WNW,287,0.0,2.0,83,0.00,,OVC042,0.00,0.00,VWS V14.01,2013-09-27 02:33:00,
2013-09-26 22:43:00,55.0,50.6,30.10,WNW,287,0.0,3.0,85,0.00,,OVC042,0.00,0.00,VWS V14.01,2013-09-27 02:43:00,
2013-09-26 22:53:00,55.0,50.6,30.10,WNW,287,0.0,0.0,85,0.00,,OVC042,0.00,0.00,VWS V14.01,2013-09-27 02:53:00,
2013-09-26 23:03:00,55.7,50.6,30.10,East,79,2.0,7.0,83,0.00,,OVC042,0.00,0.00,VWS V14.01,2013-09-27 03:03:00,
2013-09-26 23:13:00,56.2,50.5,30.10,NE,52,3.0,7.0,81,0.00,,OVC042,0.00,0.00,VWS V14.01,2013-09-27 03:13:00,
2013-09-26 23:23:00,56.2,49.8,30.10,ENE,60,5.0,6.0,79,0.00,,OVC042,0.00,0.00,VWS V14.01,2013-09-27 03:23:00,
2013-09-26 23:33:00,56.3,49.5,30.11,East,101,5.0,5.0,78,0.00,,OVC042,0.00,0.00,VWS V14.01,2013-09-27 03:33:00,
2013-09-26 23:43:00,56.0,49.6,30.11,East,88,2.0,7.0,79,0.00,,OVC042,0.00,0.00,VWS V14.01,2013-09-27 03:43:00,
2013-09-26 23:53:00,55.6,49.9,30.11,East,90,5.0,5.0,81,0.00,,OVC042,0.00,0.00,VWS V14.01,2013-09-27 03:53:00,